Location: Kermapucano
(48.0667°N, 3.3000°W)
Time: 20:56:12
(UTC+00:00)

NOSS 3-4 (C) - Pass Details

Date: 29 November 2020
Orbit: 878 x 1334 km, 63.4° (Epoch: 25 January)

Event Time Altitude Azimuth Distance (km) Brightness Sun altitude
Exits shadow 04:00:45 39° 115° (ESE) 1,338 4.5 -35.9°
Drops below altitude 10° 04:06:19 10° 52° (NE) 2,693 6.4 -34.9°
Sets 04:09:08 0° 45° (NE) 3,705 7.2 -34.5°
